If you wish to contribute or participate in the discussions about articles you are invited to join SKYbrary as a registered user

 Actions

Gimpo International Airport

From SKYbrary Wiki

RKSS
Airport
ICAO: RKSS – IATA: GMP
Summary
Name Gimpo International Airport
Region Asia and Pacific
Territory South Korea KR.gif
Location Seoul, Seoul National Capital Area
Serving Seoul
Elevation 17.678 m
58 ft
58 ft17.678 m
Coordinates 37° 33' 30.2806", 126° 47' 29.7986"
Runways
Designator Length Width Surface ROPS
14L/32R 3600 m11,811.024 ft 45 m147.638 ft ASP yes/yes
14R/32L 3200 m10,498.688 ft 60 m196.85 ft ASP yes/yes


METAR
Observation RKSS 221800Z 30002KT 9999 FEW030 BKN080 15/12 Q1016 NOSIG
Station Seoul / Kimp'O International Airport
Date/Time 22 September 2018 18:00:00
Wind direction 300°
Wind speed 02 kts
Lowest cloud amount few clouds
Temperature 15°C
Dew point 12°C
Humidity 82%
QNH 1016 hPa
Weather condition n/a

An international airport serving Seoul, South Korea but note that the main airport is Incheon.

Climatology

Warm continental climate/Humid continental climate/Humid subtropical climate (Köppen climate classification Dwa/Cwa)

Maps

Terrain

Loading map...

Airport Layout

Loading map...


Accidents & Serious Incidents at or in vicinity of RKSS

None on SKYbrary